Location: Unspecified
(0.0000°N, 0.0000°E)
Time: 23:30:17
(UTC+02:00)

Cosmos 1515 Rocket - Visible Passes

Search period start: 29 April 2017 00:00
Search period end: 09 May 2017 00:00
Orbit: 607 x 630 km, 82.5° (Epoch: 28 April)

Date Brightness Start Highest point End Pass type
(mag) Time Alt. Az. Time Alt. Az. Time Alt. Az.
29 Apr 6.0 07:00:36 10° NNE 07:04:20 26° E 07:08:04 10° SE visible
30 Apr 4.2 07:17:05 10° N 07:21:28 61° E 07:25:50 10° SSE visible
02 May 6.8 06:16:15 10° ENE 06:18:10 13° E 06:20:03 10° ESE visible
03 May 5.7 06:31:30 10° NNE 06:35:17 28° E 06:39:04 10° SE visible
04 May 4.0 06:48:01 10° N 06:52:25 65° E 06:56:48 10° SSE visible
05 May 3.7 07:05:14 10° NNW 07:09:33 53° W 07:13:52 10° S visible
06 May 6.7 05:47:01 10° ENE 05:49:06 13° E 05:51:12 10° ESE visible
06 May 4.7 07:23:08 10° NW 07:26:40 23° W 07:30:11 10° SSW visible
07 May 5.5 06:02:24 10° NNE 06:06:14 29° E 06:10:04 10° SSE visible
08 May 3.8 06:18:58 10° N 06:23:22 68° E 06:27:45 10° S visible
